Flag for U.S.A. Weather past 2 weeks in New York, New York, U.S.A.

Now
63 °F

Scattered clouds.


Feels Like: 63 °F
Forecast: 52 / 67 °F
Wind: 8 mph from Southeast

Location: New York City - Central Park

Current Time: Oct 21, 2014 at 6:13:59 PM

Latest Report: Oct 21, 2014 at 5:51 PM


Visibility: 10 mi

Pressure: 29.83 "Hg

Humidity: 68%

Dew point: 52 °F

Location of New YorkLocation

Historic Weather in New York — Graph

°F

New York temperature yesterday

Maximum temperature yesterday: 59 °F (at 2:51 PM)
Minimum temperature yesterday: 42 °F (at 2:51 AM)
Average temperature yesterday: 51 °F

Past Weeks' High & Low Weather Summary

 TemperatureHumidityPressure
High77 °F (Oct 15, 1:51 PM)94% (Oct 16, 11:51 AM)30.34 "Hg (Oct 16, 11:51 AM)
Low42 °F (Oct 20, 2:51 AM)31% (Oct 9, 3:51 PM)29.56 "Hg (Oct 18, 1:51 PM)
Average61 °F63%29.98 "Hg
* Reported Oct 6 4:51 PM — Oct 21 4:59 PM, New York, Weather by CustomWeather, © 2014

Note: Actual official high and low records may vary slightly from our data, if they occured in-between our weather recording intervals... More about our weather records

Advertising

New York weather history for previous 24 hours

 ConditionsComfort  
Time TempWeatherWind HumidityBarometerVisibility
4:59 PM
Oct 21
65 °FPartly sunny.No wind63%29.85 "Hg10 mi
4:51 PM64 °FScattered clouds.5 mph63%29.82 "Hg10 mi
3:51 PM65 °FBroken clouds.5 mph63%29.82 "Hg10 mi
2:51 PM66 °FBroken clouds.8 mph59%29.83 "Hg10 mi
1:51 PM65 °FCloudy.3 mph56%29.83 "Hg10 mi
12:51 PM64 °FBroken clouds.No wind58%29.85 "Hg10 mi
11:51 AM64 °FMostly cloudy.3 mph61%29.87 "Hg10 mi
10:51 AM64 °FPassing clouds.No wind50%29.88 "Hg10 mi
9:51 AM61 °FScattered clouds.No wind56%29.89 "Hg10 mi
8:51 AM58 °FPassing clouds.5 mph65%29.89 "Hg10 mi
7:51 AM56 °FClear.No wind67%29.89 "Hg10 mi
6:51 AM55 °FPassing clouds.No wind69%29.89 "Hg10 mi
5:51 AM56 °FPassing clouds.No wind67%29.89 "Hg10 mi
4:51 AM57 °FPassing clouds.No wind60%29.90 "Hg10 mi
3:51 AM58 °FPassing clouds.No wind58%29.90 "Hg10 mi
2:51 AM58 °FClear.6 mph58%29.92 "Hg10 mi
1:51 AM58 °FClear.N/A58%29.93 "Hg10 mi
12:51 AM59 °FClear.6 mph51%29.96 "Hg10 mi
11:51 PM
Oct 20
58 °FClear.3 mph58%29.96 "Hg10 mi
10:51 PM58 °FClear.No wind60%29.97 "Hg10 mi
9:51 PM58 °FClear.N/A54%29.98 "Hg10 mi
8:51 PM56 °FClear.3 mph55%29.98 "Hg10 mi
7:51 PM57 °FClear.3 mph47%29.98 "Hg10 mi
6:51 PM57 °FSunny.N/A47%29.97 "Hg10 mi
Weather by CustomWeather, © 2014

See weather overviewHow to use our weather pages